sat.trackr.live / text

‹ back to catalog

STARLINK-11197 [DTC]

NORAD 60186 · 2024-124D

PAYLOAD ACTIVE UNKNOWN

§ Identity

Operator
Country
US
Launch date
2024-07-03
Launch site
AFETR
Launch vehicle
Mass (kg)
RCS (m²)

Purposes: comms

External: N2YO · Heavens-Above · Gunter

§ Orbital elements

Epoch: 2026-09-20T05:43:34.595040Z

Period
91.74 min
Inclination
53.1593°
Eccentricity
0.0001170
Mean motion
15.69705069 rev/d
Perigee alt
359.0 km
Apogee alt
360.5 km
Semi-major
6,737.9 km
B*
1.3641e-7
RAAN
281.9474°
Arg perigee
77.0451°
Mean anomaly
283.0698°
Rev number
12,709

§ Raw data

STARLINK-11197 [DTC]1 60186U 24124D   26263.23859485 -.00000572  00000+0  13641-6 0  99922 60186  53.1593 281.9474 0001170  77.0451 283.0698 15.69705069127090

JSON: /api/v1/satellites/60186 · /tle

For live sub-satellite position, see the globe view (requires WebGL).

§ Visibility from observer

Set your observer location to see the next 7 days of passes ≥ 10°. The values pass through the URL so the page stays shareable.

No JS? Fill the form by hand. The geolocation button needs JavaScript.